Theta_e
291 291 291 290 291 292 290 291 289 291 292 296 300 301 302 305 305 305 306 308 309 310 313 314 313 314 314 314 313 314 315 318 321 327 329 328 327 328 328 329 333 335 337 341
289 292 292 290 292 292 293 293 292 294 294 300 301 303 303 304 304 304 305 307 308 309 310 311 312 311 312 312 313 316 317 317 318 321 322 325 325 328 328 328 330 335 337 338
284 290 290 287 291 293 293 295 293 290 295 300 299 300 302 304 304 304 304 304 306 308 309 311 311 312 312 312 313 313 313 315 317 318 319 321 323 324 326 330 330 332 338 339
285 288 279 291 300 298 295 296 298 296 297 299 300 302 303 304 303 304 305 304 305 308 309 310 311 311 313 312 311 311 311 313 315 317 317 319 321 323 325 328 331 334 338 341
283 285 289 292 296 294 291 291 299 298 299 300 301 301 301 305 305 305 305 305 306 307 307 309 310 310 310 310 309 308 310 311 313 314 316 317 318 323 326 327 329 335 338 342
288 282 280 291 297 300 298 289 299 298 297 297 297 291 296 303 304 304 305 305 303 307 307 305 308 310 309 308 309 309 310 311 314 315 316 316 319 323 325 329 333 335 337 343
286 284 288 297 299 300 286 289 299 299 298 298 295 297 301 303 303 305 305 305 306 306 305 307 308 309 306 307 307 311 312 313 314 316 317 317 320 325 327 329 333 333 337 341
288 285 283 300 297 289 294 299 299 299 299 298 299 300 301 302 302 304 303 303 304 302 302 304 306 307 306 306 309 310 312 313 314 316 317 317 321 324 327 331 332 334 336 337
289 289 299 301 297 300 301 299 299 299 300 299 297 297 299 299 299 300 300 301 302 301 301 303 305 306 305 307 310 311 312 312 314 317 315 318 320 323 328 332 331 333 333 332
291 294 296 297 299 299 301 300 300 301 299 298 296 296 295 296 296 297 298 299 300 300 300 301 303 305 305 308 310 309 310 313 314 315 316 319 321 324 327 330 330 331 332 329
291 295 294 295 297 299 300 301 300 300 297 295 295 294 295 295 295 295 296 297 297 297 298 299 303 304 306 308 308 309 310 312 313 314 315 316 320 322 328 332 331 333 331 329
286 293 293 295 298 300 299 298 299 296 295 295 294 293 294 293 294 294 293 293 293 295 296 297 300 302 305 308 310 310 310 310 312 315 317 319 315 309 300 305 305 306 310 323
290 296 297 299 300 301 299 297 297 296 296 293 293 293 291 288 288 290 292 294 295 296 297 297 299 301 304 307 311 309 311 312 314 313 319 319 319 316 314 307 299 297 301 304
297 298 295 298 297 301 299 298 298 296 294 292 291 290 287 287 291 294 295 297 302 306 302 300 300 302 305 309 311 315 318 307 317 323 322 320 322 323 324 320 317 312 297 299
296 298 298 301 301 299 299 298 295 292 292 290 289 288 292 293 293 296 301 310 306 303 302 301 301 303 308 310 314 318 319 321 326 325 326 324 327 326 324 319 314 312 311 303
297 297 298 298 300 298 298 297 294 292 291 290 289 291 294 295 296 300 303 309 308 305 305 305 305 309 313 318 319 320 322 308 317 325 325 327 325 321 318 318 317 315 312 312
292 292 296 299 299 297 296 297 296 293 291 290 291 293 294 294 295 296 300 305 314 314 315 316 318 319 319 322 317 325 326 325 312 326 325 324 322 319 319 318 315 314 314 310
297 299 302 302 300 297 297 297 296 294 291 292 293 293 293 292 292 293 299 303 303 306 302 311 317 321 321 327 326 327 327 327 325 324 323 323 322 322 319 317 315 312 309 303
298 299 301 301 302 302 298 297 297 295 293 292 292 291 292 292 293 294 297 296 296 296 297 308 307 319 324 316 321 327 326 326 325 325 322 313 319 317 316 314 313 313 312 311
297 299 300 301 302 302 299 298 298 296 294 292 292 291 291 291 292 293 293 295 293 293 299 307 323 328 325 317 310 328 327 326 323 321 320 320 318 315 315 307 310 308 308 309
294 297 298 299 300 302 303 300 297 296 295 294 292 291 291 291 292 293 290 289 292 293 296 301 305 315 327 322 324 328 326 322 321 320 319 316 315 314 312 311 308 305 304 305
293 295 296 298 299 300 303 301 298 298 296 294 293 293 291 290 290 291 293 289 291 290 294 298 300 294 316 310 328 325 323 321 321 319 317 315 313 312 311 307 304 303 302 302
294 294 296 296 298 300 301 303 301 298 297 295 294 293 291 291 291 288 288 291 290 290 294 293 290 293 298 324 324 322 321 320 319 318 317 316 314 312 308 305 302 302 300 299
295 296 294 294 297 298 298 301 303 300 298 298 297 296 293 290 291 292 292 290 288 289 291 289 290 290 298 315 317 318 319 319 318 317 315 305 314 312 310 305 301 301 300 298
296 296 296 293 293 294 296 299 302 302 300 298 296 298 296 295 291 292 291 290 288 289 291 289 289 291 304 307 308 310 311 314 315 315 314 313 312 310 307 306 303 300 297 296
295 294 295 296 293 293 295 296 296 300 300 298 297 297 299 296 294 292 291 289 290 288 290 290 290 292 295 300 302 301 302 303 308 307 308 310 309 307 304 298 297 296 295 293
296 292 294 294 295 294 293 294 296 297 300 300 297 297 298 298 294 292 289 290 289 288 288 289 290 289 291 293 296 296 296 296 295 302 301 301 301 301 298 295 292 292 290 289
Wind_Speed
18 19 19 15 18 18 18 16 19 18 23 20 19 18 18 12 11 11 14 19 13 11 7 8 8 8 8 9 10 15 17 13 13 8 6 7 12 12 11 11 12 14 14 14
18 19 20 22 22 20 23 27 26 23 30 20 16 16 18 15 14 15 11 15 16 15 16 14 9 9 10 11 11 10 16 15 12 16 10 9 12 12 12 12 12 12 13 12
13 16 17 14 18 18 20 19 20 22 16 18 18 15 15 17 15 8 17 15 15 14 14 13 11 8 9 10 11 12 16 16 14 12 16 11 14 14 13 11 13 13 13 11
11 15 13 10 16 17 13 15 22 11 14 13 14 17 19 20 20 18 17 15 14 13 13 15 13 13 10 11 13 15 17 16 15 16 17 13 13 14 14 11 11 12 13 11
4 8 17 13 10 6 7 20 18 17 18 20 22 24 20 19 18 18 18 18 16 14 15 17 15 12 14 13 14 18 17 17 8 24 18 17 14 13 11 12 12 11 12 11
7 6 7 7 15 15 17 16 16 20 20 22 22 19 17 20 23 22 23 18 18 16 16 16 14 13 16 18 15 18 17 17 17 16 19 17 15 14 13 15 8 8 12 12
10 8 7 11 14 16 10 13 23 22 23 24 22 19 28 24 24 20 20 19 17 17 16 16 15 15 18 17 18 16 15 17 17 19 18 15 15 12 10 11 10 11 14 10
3 4 5 22 13 9 11 19 23 23 24 26 25 28 28 29 25 23 21 23 24 19 18 17 17 16 18 17 14 15 16 18 18 19 12 12 13 12 12 13 12 13 13 10
2 5 17 14 15 16 18 22 23 26 24 21 24 27 29 28 28 28 28 21 19 20 19 17 16 16 18 17 15 15 16 17 18 17 15 14 14 13 11 12 13 13 13 10
10 5 15 17 14 18 22 24 27 22 24 28 29 27 27 24 23 23 23 21 20 21 21 20 18 18 18 17 16 17 18 17 14 16 15 14 11 12 12 13 13 14 13 11
13 13 18 13 21 23 27 27 23 24 25 26 26 25 24 24 25 23 23 23 22 22 20 21 20 18 16 17 17 17 17 16 16 12 13 13 14 10 14 17 14 13 11 12
8 18 16 23 23 24 25 22 24 25 29 24 24 24 25 23 22 24 25 25 24 24 24 22 21 19 18 18 16 15 14 13 12 10 11 10 8 4 14 6 12 15 14 13
7 16 23 24 19 25 23 26 24 26 26 25 25 21 24 22 24 28 28 29 28 25 25 22 21 21 20 19 17 18 17 14 10 10 10 12 11 6 10 18 30 22 19 18
16 16 21 22 24 20 18 19 23 24 21 21 22 20 21 21 24 24 24 27 23 15 22 19 20 19 20 17 15 9 10 10 8 11 13 12 11 11 11 13 13 10 17 13
16 18 19 21 23 16 16 16 24 24 22 22 22 21 21 22 22 21 18 14 15 19 19 19 18 17 17 17 13 7 7 8 12 12 16 13 13 14 14 14 13 11 11 12
20 21 20 22 23 17 17 18 23 24 23 21 21 23 25 23 18 17 20 18 10 12 15 15 15 14 14 8 7 5 10 13 13 12 11 11 12 13 13 13 12 11 10 10
16 19 20 22 20 18 17 16 20 22 25 25 23 23 22 20 21 23 22 20 19 17 13 8 12 11 8 5 11 8 10 11 15 13 12 13 12 11 12 12 12 10 9 6
15 17 19 20 22 17 18 18 17 21 23 23 21 20 21 24 21 20 19 16 19 17 20 13 8 7 7 15 13 10 10 11 12 11 11 12 13 13 13 13 11 10 9 8
16 18 20 21 20 21 17 15 14 18 25 24 23 23 19 19 20 19 18 21 22 19 19 18 19 12 14 14 9 8 8 9 13 12 14 16 14 13 12 12 11 11 10 10
17 18 20 21 23 21 18 15 14 14 21 23 22 22 22 23 22 20 18 15 16 11 16 18 10 17 19 14 9 8 13 14 15 13 12 13 13 13 12 13 12 11 10 10
17 18 19 20 18 20 19 15 15 11 18 20 22 21 19 17 19 18 22 16 22 25 20 18 14 10 10 11 11 11 12 12 13 13 12 13 13 12 12 12 11 10 10 9
14 15 16 18 18 17 18 14 14 14 13 20 19 19 18 19 19 16 13 15 13 26 14 12 11 13 6 8 10 11 11 12 11 11 12 12 12 11 12 12 11 11 9 10
10 13 14 17 18 15 17 17 16 17 12 16 19 18 18 13 10 14 14 18 13 18 12 13 17 14 12 9 10 10 11 11 11 12 12 12 12 12 11 12 11 11 11 10
13 12 12 15 15 16 17 18 19 14 15 10 12 13 13 12 11 9 9 12 22 20 12 14 17 15 11 8 9 9 9 8 11 11 12 10 9 13 13 12 11 10 10 11
12 12 11 12 15 13 16 16 15 15 13 13 13 10 13 9 9 11 10 11 21 16 12 18 20 17 11 9 9 9 7 7 9 10 10 11 12 12 12 12 12 11 11 11
11 10 10 10 8 10 12 12 12 12 11 12 10 11 9 9 10 11 11 14 11 14 11 11 12 11 11 10 10 9 8 8 9 8 9 11 12 13 13 12 11 11 11 11
9 8 9 10 11 9 9 13 12 13 11 13 10 10 9 7 11 12 12 11 11 11 11 10 10 12 11 11 10 9 9 9 9 9 9 9 11 12 12 12 11 12 12 11
Wind_Direction
288 294 291 204 252 261 267 264 263 268 264 266 276 289 287 286 356 357 328 316 328 297 273 290 295 303 309 291 293 286 281 287 288 232 233 248 261 254 245 245 243 241 242 234
290 288 283 271 280 281 262 249 247 236 249 272 345 333 332 332 348 327 281 291 302 306 304 299 304 315 302 293 286 294 309 271 279 284 243 241 253 254 241 242 248 249 244 232
285 289 312 287 270 263 279 296 264 271 333 334 331 318 315 320 321 258 282 303 313 312 295 286 284 281 295 298 280 274 278 284 267 287 264 251 258 259 263 237 231 237 251 235
286 293 278 273 19 23 343 323 332 334 331 302 312 312 309 306 300 297 299 308 306 301 294 296 292 282 259 255 276 265 265 264 269 278 269 266 253 242 254 256 251 229 234 234
265 284 293 304 24 0 353 303 308 354 334 326 323 312 290 289 295 310 315 306 295 288 291 283 269 276 278 263 265 266 257 264 240 275 264 268 265 259 252 255 241 253 230 222
299 303 299 57 355 348 308 279 356 334 326 324 322 301 299 315 308 303 294 286 286 283 277 275 272 271 267 258 251 254 257 256 261 248 255 259 263 254 247 256 234 239 235 224
245 250 265 12 348 329 298 331 333 320 313 312 304 298 303 298 292 291 296 298 294 286 276 276 280 269 258 259 252 245 246 252 254 259 254 264 264 267 265 259 252 230 228 177
302 281 282 2 356 353 302 311 325 318 315 308 307 306 302 300 299 296 298 297 289 282 274 269 264 260 257 255 255 259 250 250 250 254 259 266 264 257 250 249 240 222 200 161
313 302 317 347 333 329 321 318 318 312 310 317 309 303 299 297 297 294 288 281 274 268 262 259 258 254 252 248 243 250 249 249 249 253 260 252 259 254 251 243 217 199 168 149
337 308 327 323 325 322 327 316 309 316 324 319 302 296 292 287 288 284 280 277 278 268 256 254 249 249 247 247 245 248 256 248 242 249 246 252 256 256 243 225 199 181 159 147
289 294 340 310 318 329 311 310 313 324 320 306 300 298 294 290 288 286 280 273 268 263 257 252 245 243 236 242 240 234 243 240 239 242 251 253 250 266 230 211 171 159 146 140
283 316 303 301 308 312 316 326 337 321 311 309 306 302 301 294 292 286 281 273 262 253 245 241 238 236 236 234 222 225 233 237 236 235 237 240 165 99 36 108 146 125 115 118
284 295 291 297 322 313 307 335 323 312 313 311 306 302 299 293 283 286 280 276 267 254 234 221 223 225 233 235 207 219 223 226 230 227 219 166 132 128 134 61 66 59 93 106
302 313 318 317 313 308 321 327 327 321 316 310 306 304 293 289 291 291 293 288 288 272 212 186 194 207 220 229 246 211 222 213 241 196 126 138 132 154 112 102 98 81 43 85
325 317 308 315 311 326 333 347 330 331 329 321 316 310 313 318 314 310 310 339 52 71 101 141 170 190 203 223 226 226 217 183 142 132 133 135 124 114 101 99 101 103 95 68
317 318 315 310 317 341 348 350 334 333 336 323 327 327 328 329 330 341 357 353 97 94 115 133 158 184 200 188 202 179 200 128 105 117 110 112 96 97 100 104 101 100 103 109
321 317 316 330 340 352 353 359 343 342 337 334 340 336 337 345 353 360 1 2 42 46 44 90 114 134 139 206 152 114 108 110 105 99 98 102 98 107 104 101 101 101 107 102
313 316 322 340 336 354 356 355 351 347 345 339 339 346 356 358 360 355 357 10 28 20 15 10 158 198 182 126 117 111 123 108 106 103 109 106 100 95 99 100 104 104 98 84
334 331 340 344 343 346 1 357 3 353 349 349 353 359 353 358 1 3 360 17 22 18 354 336 329 159 105 88 103 124 120 109 105 97 94 94 99 101 101 103 107 108 108 97
340 342 345 343 343 346 4 2 6 4 358 351 355 359 3 4 2 6 7 29 6 2 334 353 8 107 113 133 183 120 98 98 106 104 104 106 102 106 107 102 101 94 92 97
344 342 346 341 341 345 352 3 3 25 4 358 359 4 1 357 4 4 17 11 353 349 348 356 4 1 92 118 103 105 104 107 101 108 106 101 109 110 109 105 98 101 105 105
340 342 340 340 341 345 344 0 20 14 22 1 3 5 6 10 9 11 22 10 344 347 350 1 1 343 45 85 92 96 102 106 107 111 109 112 111 111 111 110 110 110 106 105
340 338 345 344 338 344 349 352 4 14 29 16 2 4 7 2 0 0 4 358 356 348 2 358 350 5 35 54 92 93 100 108 109 111 113 115 118 116 111 113 112 112 110 104
346 347 4 345 340 352 353 351 348 25 11 29 11 6 4 1 3 6 358 349 3 3 3 359 4 6 37 53 72 82 93 101 111 114 112 104 106 111 112 116 113 107 103 106
349 352 3 2 356 353 342 345 342 357 10 4 23 13 15 16 8 354 355 3 11 3 7 8 13 16 28 38 50 56 59 86 104 116 118 117 117 110 105 109 114 111 107 102
2 7 350 7 21 349 346 340 339 353 346 1 19 12 18 9 9 8 6 8 8 7 16 14 17 17 20 31 49 52 52 58 88 84 101 111 108 106 107 109 109 107 107 109
15 29 359 6 5 357 352 344 343 341 352 359 8 17 8 29 18 14 11 12 12 15 15 16 21 22 22 24 40 45 49 51 52 87 83 83 101 107 107 108 109 108 110 113